Probability
0 0 0 0 0 0 0 0 0 0 0 0 0 0 0 0 0 0 0 0 0 0 0 0 0 0 0 0 0 0 0 0 0 0 0 0 0 0 0 0 0 0 0 0
0 0 0 0 0 0 0 0 0 0 0 0 0 0 0 0 0 0 0 0 0 0 0 0 0 0 0 0 0 0 0 0 0 0 0 0 0 0 0 0 0 0 0 0
0 0 0 0 0 0 0 0 0 0 0 0 0 0 0 0 0 0 0 0 0 0 0 0 0 0 0 0 0 0 0 0 0 0 0 0 0 0 0 0 0 0 0 0
0 0 0 0 0 0 0 0 0 0 0 0 0 0 0 0 0 0 0 0 0 0 0 0 0 0 0 0 0 0 0 0 0 0 0 0 0 0 0 0 0 0 0 0
0 0 0 0 0 0 0 0 0 0 0 0 0 0 0 0 0 0 0 0 0 0 0 0 0 0 0 0 0 0 0 0 0 0 0 0 0 0 0 0 0 0 0 0
0 0 0 0 0 0 0 0 0 0 0 0 0 0 0 0 0 0 0 0 0 0 0 0 0 0 0 0 0 0 0 0 0 0 0 0 0 0 0 0 0 0 0 0
0 0 0 0 0 0 0 0 0 0 0 0 0 0 0 0 0 0 0 0 0 0 0 0 0 0 0 0 0 0 0 0 0 0 0 0 0 0 0 0 0 0 0 0
0 0 0 0 0 0 0 0 0 0 0 0 0 0 0 0 0 0 0 0 0 0 0 0 0 0 0 0 0 0 0 0 0 0 0 0 0 0 0 0 0 0 0 0
0 0 0 0 0 0 0 0 0 0 0 0 0 0 0 0 0 0 0 0 0 0 0 0 0 0 0 0 0 0 0 0 0 0 0 0 0 0 0 0 0 0 0 0
0 0 0 0 0 0 0 0 0 0 0 0 0 0 0 0 0 0 0 0 0 0 0 0 0 0 0 0 0 0 0 0 0 0 0 0 0 0 0 0 0 0 0 0
0 0 0 0 0 0 0 0 0 0 0 0 0 0 0 0 0 0 0 0 0 0 0 0 0 0 0 0 0 0 0 0 0 0 0 0 0 0 0 0 0 0 0 0
0 0 0 0 0 0 0 0 0 0 0 0 0 0 0 0 0 0 0 0 0 0 0 0 0 0 0 0 0 0 0 0 0 0 0 0 0 0 0 0 0 0 0 0
0 0 0 0 0 0 0 0 0 0 0 0 0 0 0 0 0 0 0 0 0 0 0 0 0 0 0 0 0 0 0 0 0 0 0 0 0 0 0 0 0 0 0 0
0 0 0 0 0 0 0 0 0 0 0 0 0 0 0 0 0 0 0 0 0 0 0 0 0 0 0 0 0 0 0 0 0 0 0 0 0 0 0 0 0 0 0 0
0 0 0 0 0 0 0 0 0 0 0 0 0 0 0 0 0 0 0 0 0 0 0 0 0 0 0 0 0 0 0 0 0 0 0 0 0 0 0 0 0 0 0 0
0 0 0 0 0 0 0 0 0 0 0 0 0 0 0 0 0 0 0 0 0 0 0 0 0 0 0 0 0 0 0 0 0 0 0 0 0 0 0 0 0 0 0 0
0 0 0 0 0 0 0 0 0 0 0 0 0 0 0 0 0 0 0 0 0 0 0 0 0 0 0 0 0 0 0 0 0 0 0 0 0 0 0 0 0 0 0 0
0 0 0 0 0 0 0 0 0 0 0 0 0 0 0 0 0 0 0 0 0 0 0 0 0 0 0 0 0 0 0 0 0 0 0 0 0 0 0 0 0 0 0 0
0 0 0 0 0 0 0 0 0 0 0 0 0 0 0 0 0 0 0 0 0 0 0 0 0 0 0 0 0 0 0 0 0 0 0 0 0 0 0 0 0 0 0 0
0 0 0 0 0 0 0 0 0 0 0 0 0 0 0 0 0 0 0 0 0 0 0 0 0 0 0 0 0 0 0 0 0 0 0 0 0 0 0 0 0 0 0 0
0 0 0 0 0 0 0 0 0 0 0 0 0 0 0 0 0 0 0 0 0 0 0 0 0 0 0 0 0 0 0 0 0 0 0 0 0 0 0 0 0 0 0 0
0 0 0 0 0 0 0 0 0 0 0 0 0 0 0 0 0 0 0 0 0 0 0 0 0 0 0 0 0 0 0 0 0 0 0 0 0 0 0 0 0 0 0 0
0 0 0 0 0 0 0 0 0 0 0 0 0 0 0 0 0 0 0 0 0 0 0 0 0 0 0 0 0 0 0 0 0 0 0 0 0 0 0 0 0 0 0 0
0 0 0 0 0 0 0 0 0 0 0 0 0 0 0 0 0 0 0 0 0 0 0 0 0 0 0 0 0 0 0 0 0 0 0 0 0 0 0 0 0 0 0 0
0 0 0 0 0 0 0 0 0 0 0 0 0 0 0 0 0 0 0 0 0 0 0 0 0 0 0 0 0 0 0 0 0 0 0 0 0 0 0 0 0 0 0 0
0 0 0 0 0 0 0 0 0 0 0 0 0 0 0 0 0 0 0 0 0 0 0 0 0 0 0 0 0 0 0 0 0 0 0 0 0 0 0 0 0 0 0 0
0 0 0 0 0 0 0 0 0 0 0 0 0 0 0 0 0 0 0 0 0 0 0 0 0 0 0 0 0 0 0 0 0 0 0 0 0 0 0 0 0 0 0 0
Wind_Speed
1 1 2 1 2 3 3 5 5 3 2 1 1 2 3 4 5 5 5 5 5 4 4 4 4 4 4 5 5 6 7 7 6 5 5 5 5 5 4 4 4 4 4 3
3 2 2 1 1 2 3 3 3 2 1 1 1 3 4 5 5 6 6 6 6 6 6 5 5 5 5 6 6 7 8 8 6 6 6 6 5 5 4 4 4 4 4 4
1 2 3 2 3 2 1 0 2 4 2 0 2 3 3 4 5 5 6 7 7 7 7 7 6 6 7 7 6 7 8 7 7 7 7 6 6 5 5 5 4 4 4 4
2 2 2 4 2 3 6 5 5 4 3 2 1 1 3 3 4 5 6 7 8 8 8 8 7 6 6 5 6 8 8 8 8 8 7 7 6 6 5 4 4 4 4 4
3 2 3 2 1 1 3 2 4 2 3 4 4 1 1 3 5 5 5 7 7 8 8 8 7 6 4 4 5 7 8 9 9 9 8 8 7 7 5 4 4 4 4 5
3 3 5 3 2 2 3 1 1 2 3 5 4 2 3 6 7 7 7 7 7 8 7 7 7 5 3 4 5 8 8 7 8 8 9 9 8 6 4 4 4 4 4 4
3 2 4 2 3 1 3 3 1 2 2 3 2 3 6 8 7 7 7 8 8 8 7 7 7 4 4 4 6 6 4 5 7 8 8 7 7 5 5 5 5 5 5 4
3 4 6 1 2 2 2 1 1 1 2 3 4 6 7 7 7 8 8 8 8 7 8 7 6 4 5 5 4 3 4 6 7 7 7 6 7 6 6 6 6 6 5 4
5 4 1 2 4 2 2 1 1 1 3 4 5 6 7 7 7 7 8 8 7 7 8 7 6 4 6 5 3 3 4 5 6 7 6 7 8 8 7 7 6 6 5 5
2 1 2 3 3 2 2 1 1 3 4 4 6 7 8 8 7 7 7 7 7 8 8 8 7 6 6 5 3 4 5 5 5 6 7 7 7 7 7 7 7 6 6 6
2 2 2 1 1 1 1 1 2 3 4 5 6 7 8 8 8 8 8 7 7 7 8 9 8 8 6 4 4 5 5 5 6 6 7 7 7 7 8 8 9 8 7 7
5 5 4 3 2 1 1 2 3 5 6 6 5 7 8 8 8 8 8 8 8 8 9 9 9 9 7 5 4 5 5 5 5 6 6 6 6 6 11 11 14 16 13 10
3 3 3 2 2 1 1 3 4 5 6 7 6 6 7 8 8 8 8 8 9 9 9 9 9 9 7 5 5 5 6 5 5 5 6 6 6 7 6 9 14 16 17 17
3 3 1 2 2 2 3 4 4 5 6 6 6 7 7 8 8 9 9 9 9 9 9 9 9 9 7 6 5 6 6 6 6 5 6 6 7 6 6 6 6 6 11 17
3 2 3 2 2 3 3 4 5 6 6 7 6 7 8 9 10 10 10 9 9 9 9 8 9 9 7 7 6 6 6 5 5 5 5 6 6 6 6 7 6 5 4 7
3 1 1 2 4 4 4 5 6 7 7 7 8 8 8 9 10 10 9 8 9 10 10 9 9 8 7 7 7 6 6 8 7 5 5 6 6 6 7 7 7 6 7 6
4 2 3 4 5 5 5 6 7 8 8 8 9 9 9 9 9 9 9 8 8 10 10 9 9 8 7 7 6 5 5 6 8 6 5 6 6 7 7 7 7 7 7 8
4 4 4 5 5 6 7 7 7 8 8 9 9 8 8 9 10 10 10 9 9 10 9 7 7 7 7 6 6 5 5 5 5 5 5 5 6 6 6 7 7 8 6 7
3 4 4 5 6 6 7 8 8 7 8 8 8 9 9 9 9 10 9 9 10 10 8 6 10 8 7 7 8 5 5 5 5 5 5 7 7 6 6 6 6 6 6 6
3 4 5 6 6 6 7 8 8 8 8 7 8 9 9 9 8 9 9 9 8 7 7 9 8 7 6 7 9 5 5 5 5 5 5 5 5 5 5 6 6 6 6 6
5 5 6 6 7 7 7 7 7 9 9 7 8 9 10 10 8 8 8 9 7 6 7 11 7 5 5 7 9 5 5 5 5 5 5 5 4 4 4 5 5 5 5 5
4 5 6 6 7 8 7 6 7 8 9 8 8 9 9 10 9 8 8 7 8 11 8 5 5 8 9 10 5 4 5 5 5 5 4 4 4 4 4 4 4 4 4 4
5 5 6 7 7 8 8 7 7 7 8 9 9 9 9 8 7 7 8 5 5 10 8 5 9 13 14 7 4 4 5 5 5 4 4 4 3 3 3 3 3 3 3 3
5 5 6 6 5 6 8 8 7 7 8 8 8 8 8 7 6 5 6 10 13 13 7 9 14 14 12 5 4 4 4 4 4 4 3 3 2 2 2 2 2 2 2 3
5 5 5 6 6 6 7 8 8 8 7 7 8 7 6 5 6 6 6 7 12 12 7 9 13 12 7 4 4 4 4 4 4 3 3 2 2 2 2 2 2 2 2 2
4 5 5 6 6 6 6 5 6 6 7 7 7 6 5 5 6 6 6 7 8 10 7 5 5 7 4 4 4 4 4 4 4 3 2 2 2 1 1 1 1 1 1 2
5 5 4 5 5 5 5 5 6 7 7 7 9 7 6 6 5 6 7 6 6 5 5 5 4 4 4 4 3 3 3 2 2 2 2 1 1 1 1 1 1 1 1 1
Wind_Direction
80 93 131 154 182 164 158 171 173 197 181 243 44 57 36 28 31 30 15 2 349 329 312 300 284 262 236 219 200 181 174 179 184 175 164 159 158 155 153 156 159 154 146 146
27 28 67 46 331 210 197 190 200 191 211 256 41 64 52 35 32 20 357 342 331 323 316 303 283 263 245 227 209 188 187 190 177 166 165 166 164 160 158 160 159 156 163 162
49 5 45 325 288 231 152 346 195 202 215 359 29 48 62 47 29 4 341 332 327 318 304 294 284 263 245 233 210 195 195 186 176 172 172 172 168 167 171 172 169 169 171 167
119 82 211 254 340 102 106 54 38 72 46 21 317 221 127 84 24 349 335 331 323 316 310 300 289 277 258 233 204 198 195 188 181 175 176 171 171 178 178 174 177 179 179 172
123 153 253 290 4 86 130 88 14 60 27 356 330 92 180 32 8 340 322 314 309 305 300 299 296 289 268 233 205 199 200 194 185 178 175 175 182 184 180 175 181 182 176 172
133 166 223 235 289 311 107 170 3 53 28 1 13 10 286 339 340 331 324 317 314 313 309 307 305 300 263 238 214 213 209 196 181 177 178 183 184 179 175 173 179 175 177 179
156 207 253 259 300 43 163 232 99 50 19 3 338 263 294 317 321 319 315 314 315 316 314 308 308 305 273 251 237 230 201 181 178 179 181 178 173 170 172 173 172 178 181 186
166 200 244 297 81 138 183 96 74 9 339 314 293 294 303 311 313 316 315 315 317 318 315 312 309 302 283 268 258 217 188 184 183 179 176 171 171 177 180 180 184 188 190 198
185 199 106 72 109 99 100 103 9 316 312 309 302 301 305 307 308 308 308 309 311 311 312 313 311 297 283 280 255 207 194 193 185 178 178 174 179 184 187 190 195 195 197 207
138 156 125 104 97 67 71 77 314 303 303 304 297 299 302 304 305 305 307 307 311 313 312 313 313 301 282 278 247 211 206 201 190 186 187 185 188 191 195 197 200 199 203 211
170 149 119 160 136 120 37 351 324 314 304 299 298 299 301 303 305 307 309 308 309 308 308 309 312 306 293 276 244 224 217 208 201 198 194 197 201 204 204 207 204 202 206 203
205 192 182 213 207 189 324 315 312 311 307 305 301 300 304 303 303 305 306 306 306 307 306 307 307 302 294 276 253 235 226 215 208 203 201 201 203 213 218 215 219 220 216 208
162 156 167 192 195 206 285 290 294 294 293 299 299 297 301 301 303 303 303 305 305 304 303 303 302 298 297 283 263 248 240 227 214 208 206 204 204 208 216 221 225 228 226 224
139 124 143 185 227 274 280 286 288 287 287 289 292 296 297 298 300 302 302 304 303 301 301 303 303 302 306 299 278 261 252 238 225 216 212 210 209 210 210 209 214 224 227 227
161 160 193 230 263 283 288 294 297 294 292 293 294 295 297 299 300 300 300 301 301 299 298 299 301 303 310 307 290 276 264 250 236 225 216 214 209 208 210 211 217 216 207 222
179 188 219 247 268 281 290 291 288 287 289 290 293 292 291 290 291 293 294 297 300 300 300 299 297 300 304 304 300 288 272 261 250 237 221 215 211 210 212 213 215 216 217 214
164 219 241 261 272 281 280 275 273 280 285 286 287 289 290 291 292 291 291 289 286 287 288 287 289 294 295 294 292 288 282 272 259 248 232 221 216 215 214 213 214 217 219 209
197 217 226 237 254 272 281 282 280 282 282 283 289 290 289 288 289 291 293 294 291 287 281 276 280 289 289 289 289 284 280 274 266 257 244 233 227 219 215 215 216 219 219 213
222 238 250 256 257 262 270 277 280 279 282 286 289 288 285 282 283 286 290 292 292 292 289 285 293 293 286 286 289 278 276 277 273 264 253 248 242 226 218 216 218 218 213 205
251 260 266 271 270 263 270 277 281 283 282 282 283 284 285 283 283 286 288 284 275 273 282 288 289 281 280 283 287 277 272 272 272 269 261 252 244 235 225 219 218 216 212 208
267 273 277 278 281 277 271 274 279 283 286 282 278 280 283 285 284 283 285 288 284 276 282 290 287 277 277 279 282 274 272 270 268 264 262 258 252 244 233 223 218 215 211 208
265 272 277 280 282 285 282 276 274 279 285 285 281 280 284 287 288 284 271 267 280 292 294 281 277 279 284 286 272 270 271 270 269 263 257 253 251 246 234 223 217 214 210 207
269 271 277 280 281 285 289 284 276 277 281 284 285 285 283 282 282 283 290 281 280 293 295 280 284 289 291 288 271 267 269 270 270 266 261 254 249 245 237 225 217 209 206 205
276 278 280 282 286 288 291 292 288 283 279 280 277 275 277 285 284 265 265 289 298 300 293 291 298 298 295 281 270 267 267 269 271 269 261 254 247 240 234 224 214 206 203 205
279 282 284 292 293 287 285 293 298 294 291 288 284 278 270 263 271 284 284 284 292 299 294 294 299 300 294 278 271 268 266 266 269 269 262 259 251 240 230 222 212 203 200 204
278 280 278 273 272 278 285 292 294 297 300 300 298 292 285 277 274 279 283 283 283 293 293 287 287 291 283 276 272 269 267 276 285 283 274 268 260 251 239 227 216 206 203 206
283 279 280 286 280 272 275 281 286 292 296 297 299 299 296 294 291 289 289 289 288 287 285 283 280 278 278 276 274 271 268 266 264 267 270 268 264 260 255 244 236 225 212 209